Weather History for EGGP - August, 2013

Change the Weather History Date:

Sunday, August 4, 2013

  Actual Average Record
Temperature  
Mean Temperature 64 °F -  
Max Temperature 68 °F 66 °F 84 °F (2003)
Min Temperature 59 °F 54 °F 51 °F (2001)
Degree Days  
Heating Degree Days 2    
Growing Degree Days 14 (Base 50)    
Moisture  
Dew Point 57 °F    
Average Humidity 82    
Maximum Humidity 94    
Minimum Humidity 68    
Precipitation  
Precipitation 0.00 in - - ()
Sea Level Pressure  
Sea Level Pressure 29.95 in    
Wind  
Wind Speed 12 mph ()    
Max Wind Speed 17 mph    
Max Gust Speed -    
Visibility 6.2 miles    
Events Rain    
Averages and records for this station are not official NWS values.
T = Trace of Precipitation, MM = Missing Value Source: Averaged Metar Reports

Daily Weather History Graph

Daily Weather History Graph

Search for Another Location

Airport or City:

Trip Planner

Search our weather history database for the weather conditions in past years. The results will help you decide how hot, cold, wet, or windy it might be!

Date:

Astronomy

Aug. 04, 2013 Rise Set
Actual Time 5:32 AM BST 9:01 PM BST
Civil Twilight 4:50 AM BST 9:43 PM BST
Nautical Twilight 3:52 AM BST 10:40 PM BST
Astronomical Twilight 2:23 AM BST 12:05 AM BST
Moon 3:17 AM BST (8/4) 7:15 PM BST (8/4)
Length of Visible Light 16h 52m
Length of Day
15h 28m
Waning Crescent, 6% of the Moon is Illuminated
Aug 4
Waning Crescent
Aug 6
New
Aug 14
First Quarter
Aug 21
Full
Aug 28
Last Quarter

Hourly Weather History & Observations

Time (BST) Temp. Dew Point Humidity Pressure Visibility Wind Dir Wind Speed Gust Speed Precip Events Conditions
12:20 AM 60.8 °F 55.4 °F 82% 29.98 in 6.2 mi South 12.7 mph - N/A   Partly Cloudy
12:50 AM 60.8 °F 55.4 °F 82% 29.98 in - South 12.7 mph - N/A   Clear
1:20 AM 59.0 °F 55.4 °F 88% 29.98 in - South 15.0 mph - N/A   Clear
1:50 AM 60.8 °F 55.4 °F 82% 29.98 in - South 15.0 mph - N/A   Clear
2:20 AM 60.8 °F 55.4 °F 82% 29.98 in - South 11.5 mph - N/A   Clear
2:50 AM 59.0 °F 55.4 °F 88% 29.98 in 6.2 mi South 9.2 mph - N/A   Partly Cloudy
3:20 AM 59.0 °F 55.4 °F 88% 29.98 in 6.2 mi South 12.7 mph - N/A Rain Light Rain Showers
3:50 AM 59.0 °F 55.4 °F 88% 29.95 in 6.2 mi South 12.7 mph - N/A   Partly Cloudy
4:20 AM 59.0 °F 55.4 °F 88% 29.98 in 6.2 mi South 12.7 mph - N/A   Partly Cloudy
4:50 AM 59.0 °F 55.4 °F 88% 29.98 in 6.2 mi South 11.5 mph - N/A Rain Light Rain Showers
5:20 AM 59.0 °F 55.4 °F 88% 29.95 in 6.2 mi South 12.7 mph - N/A Rain Light Rain Showers
5:50 AM 59.0 °F 55.4 °F 88% 29.95 in - South 15.0 mph - N/A   Clear
6:20 AM 59.0 °F 55.4 °F 88% 29.98 in 6.2 mi South 9.2 mph - N/A   Partly Cloudy
6:50 AM 59.0 °F 55.4 °F 88% 29.98 in 6.2 mi South 11.5 mph - N/A   Partly Cloudy
7:20 AM 59.0 °F 55.4 °F 88% 29.98 in 6.2 mi South 10.4 mph - N/A   Partly Cloudy
7:50 AM 60.8 °F 55.4 °F 82% 29.98 in 6.2 mi South 8.1 mph - N/A   Partly Cloudy
8:20 AM 62.6 °F 55.4 °F 77% 29.98 in 6.2 mi SSW 15.0 mph - N/A   Partly Cloudy
8:50 AM 62.6 °F 57.2 °F 82% 29.98 in 6.2 mi SSW 13.8 mph - N/A   Partly Cloudy
9:20 AM 64.4 °F 55.4 °F 73% 29.98 in 6.2 mi SSW 13.8 mph - N/A   Partly Cloudy
9:50 AM 64.4 °F 55.4 °F 73% 29.98 in 6.2 mi SSW 15.0 mph - N/A   Partly Cloudy
10:20 AM 66.2 °F 55.4 °F 68% 29.98 in 6.2 mi South 13.8 mph - N/A   Partly Cloudy
10:50 AM 66.2 °F 57.2 °F 73% 29.98 in 6.2 mi South 11.5 mph - N/A   Partly Cloudy
11:20 AM 64.4 °F 55.4 °F 73% 29.98 in 6.2 mi South 11.5 mph - N/A   Partly Cloudy
11:50 AM 64.4 °F 55.4 °F 73% 29.98 in 6.2 mi South 10.4 mph - N/A   Partly Cloudy
12:20 PM 66.2 °F 55.4 °F 68% 29.98 in 6.2 mi South 12.7 mph - N/A   Partly Cloudy
12:50 PM 66.2 °F 55.4 °F 68% 29.98 in 6.2 mi South 11.5 mph - N/A   Partly Cloudy
1:20 PM 68.0 °F 57.2 °F 68% 29.98 in 6.2 mi SSW 16.1 mph - N/A   Scattered Clouds
1:50 PM 66.2 °F 57.2 °F 73% 29.98 in 6.2 mi SSE 13.8 mph - N/A   Mostly Cloudy
2:20 PM 66.2 °F 57.2 °F 73% 29.98 in 6.2 mi South 11.5 mph - N/A   Scattered Clouds
2:50 PM 62.6 °F 57.2 °F 82% 29.95 in 6.2 mi South 12.7 mph - N/A Rain Light Rain Showers
3:20 PM 62.6 °F 57.2 °F 82% 29.95 in 6.2 mi SSE 9.2 mph - N/A Rain Light Rain Showers
4:20 PM 64.4 °F 59.0 °F 83% 29.92 in 6.2 mi SE 12.7 mph - N/A   Scattered Clouds
4:50 PM 62.6 °F 59.0 °F 88% 29.92 in 5.6 mi SSE 16.1 mph - N/A Rain Light Rain Showers
5:20 PM 62.6 °F 60.8 °F 94% 29.92 in 5.6 mi SSE 10.4 mph - N/A Rain Light Rain Showers
6:20 PM 64.4 °F 60.8 °F 88% 29.92 in 6.2 mi SE 8.1 mph - N/A Rain Light Rain Showers
6:50 PM 64.4 °F 62.6 °F 94% 29.89 in 6.2 mi South 11.5 mph - N/A   Mostly Cloudy
7:20 PM 66.2 °F 60.8 °F 83% 29.89 in 6.2 mi South 17.3 mph - N/A   Scattered Clouds
7:50 PM 66.2 °F 62.6 °F 88% 29.89 in 6.2 mi South 15.0 mph - N/A   Scattered Clouds
8:20 PM 66.2 °F 60.8 °F 83% 29.89 in 6.2 mi South 15.0 mph - N/A   Scattered Clouds
8:50 PM 66.2 °F 60.8 °F 83% 29.92 in 6.2 mi South 12.7 mph - N/A   Scattered Clouds
9:20 PM 64.4 °F 60.8 °F 88% 29.92 in 6.2 mi South 12.7 mph - N/A   Scattered Clouds
9:50 PM 64.4 °F 60.8 °F 88% 29.92 in 6.2 mi South 11.5 mph - N/A   Scattered Clouds
10:20 PM 64.4 °F 60.8 °F 88% 29.89 in 6.2 mi SSE 12.7 mph - N/A   Scattered Clouds
10:50 PM 64.4 °F 59.0 °F 83% 29.89 in 6.2 mi SSE 12.7 mph - N/A   Scattered Clouds
11:20 PM 64.4 °F 60.8 °F 88% 29.89 in 6.2 mi SSE 12.7 mph - N/A   Scattered Clouds
11:50 PM 62.6 °F 59.0 °F 88% 29.89 in 6.2 mi SSE 16.1 mph - N/A   Mostly Cloudy